Find Starlink 1443

NORAD ID: 45660 Int'l Des: 2020-035 Owner: SPXS Country: US Constellation: starlink operational
LEOCIRCULAR

Live Position

Loading 3D Globe...

About Starlink 1443

Description loading...

Upcoming Passes

Passes for default location (London). Set your location on the main map for personalized predictions.

Altitude History

Loading altitude history...

Two-Line Element Set

1 45660U 20035D 26109.62225435 .00028051 00000-0 10001-2 0 9998
2 45660 53.1355 235.6021 0001771 279.0401 81.0398 15.28715657325010
Epoch: Apr 19, 2026 • Age: 28 hours

Current Status

Altitude 493.3 km
Velocity 7.62 km/s
Sub-Earth Point -43.86°S, 32.63°W
Launch Date Jun 4, 2020
Age 5.8 years
Type internet

Technical Details

Classification Payload
Mass 260.00 kg
Dry Mass 248.00 kg
Total Mass 260.00 kg
Length 0.20 m
Diameter 2.80 m
Span 9.00 m
Shape Box + pan
Manufacturer SPXS
Bus Type Starlink
Phase Status In Orbit
Owner/State SPXS/US

Most Searched